This demonstration page uses our WeatherBlox Daily Observations layout. Learn more.

Left ArrowRight Arrow

39.92423, -83.80882

Hourly Observations for November 12, 2020

Temp ( °F °C ) Dew Point ( °F °C ) Humidity (%) Winds ( mph kmh ) Pressure ( in mb ) Visibility ( mi km ) Precip ( " mm )
12:56 am 00:56 Clear 33 0.6 33 0.6 100 100 NNW 3 6 30.14 1021 7 11 N/A
1:56 am 01:56 Clear with Mist and Fog 31 -0.6 31 -0.6 100 100 N 3 6 30.15 1021 6 10 N/A
2:56 am 02:56 Clear with Mist and Fog 31 -0.6 31 -0.6 100 100 NE 3 6 30.17 1022 6 10 N/A
3:56 am 03:56 Clear with Mist and Fog 30 -1.1 30 -1.1 100 100 N 5 7 30.18 1022 5 8 N/A
4:56 am 04:56 Clear with Mist and Fog 29 -1.7 29 -1.7 100 100 N 5 7 30.18 1022 4 6 N/A
5:56 am 05:56 Clear with Mist and Fog 29 -1.7 29 -1.7 100 100 NNE 3 6 30.19 1022 6 10 N/A
6:56 am 06:56 Clear 29 -1.7 29 -1.7 100 100 NNE 7 11 30.21 1023 8 13 N/A
7:56 am 07:56 Sunny 30 -1.1 30 -1.1 100 100 ENE 7 11 30.22 1023 8 13 N/A
8:56 am 08:56 Sunny 35 1.7 34 1.1 96 96 NE 8 13 30.22 1023 9 14 N/A
9:56 am 09:56 Sunny 40 4.4 36 2.2 86 86 E 12 19 30.21 1023 10 16 N/A
10:56 am 10:56 Sunny 45 7.2 37 2.8 74 74 E 12 19 30.19 1023 10 16 N/A
11:56 am 11:56 Sunny 46 7.8 35 1.7 66 66 E 13 20 30.17 1022 10 16 N/A
12:56 pm 12:56 Sunny 48 8.9 35 1.7 61 61 E 7 11 30.12 1020 10 16 N/A
1:56 pm 13:56 Sunny 49 9.4 35 1.7 59 59 N N/A 30.12 1020 7 11 N/A
2:56 pm 14:56 Sunny 51 10.6 35 1.7 54 54 E 3 6 30.09 1019 10 16 N/A
3:56 pm 15:56 Sunny 51 10.6 34 1.1 52 52 N 3 6 30.09 1019 10 16 N/A
4:56 pm 16:56 Hazy 49 9.4 35 1.7 59 59 N N/A 30.09 1019 6 10 N/A
5:56 pm 17:56 Clear 41 5 35 1.7 79 79 NNE 3 6 30.10 1019 10 16 N/A
6:56 pm 18:56 Clear 40 4.4 34 1.1 79 79 NE 3 6 30.11 1020 10 16 N/A
7:56 pm 19:56 Clear 38 3.3 34 1.1 86 86 N N/A 30.10 1019 10 16 N/A
8:56 pm 20:56 Clear 37 2.8 34 1.1 89 89 N N/A 30.10 1019 10 16 N/A
9:56 pm 21:56 Clear 33 0.6 32 undefined 96 96 E 5 7 30.07 1018 7 11 N/A
10:56 pm 22:56 Clear with Mist and Fog 34 1.1 32 undefined 92 92 ESE 5 7 30.05 1018 6 10 N/A
11:56 pm 23:56 Clear 35 1.7 32 undefined 89 89 N N/A 30.04 1017 10 16 N/A

Powered by AerisWeather